TimeCDT,TemperatureF,Dew PointF,Humidity,Sea Level PressureIn,VisibilityMPH,Wind Direction,Wind SpeedMPH,Gust SpeedMPH,PrecipitationIn,Events,Conditions,WindDirDegrees,DateUTC
12:31 AM,55.4,50.0,82,29.76,10.0,NE,5.8,-,0.00,,Overcast,50,2012-10-23 05:31:00
12:56 AM,55.0,50.0,83,29.77,10.0,ENE,3.5,-,0.00,,Overcast,60,2012-10-23 05:56:00
1:56 AM,55.9,53.1,90,29.74,5.0,East,6.9,-,N/A,,Overcast,80,2012-10-23 06:56:00
2:46 AM,55.4,53.6,94,29.73,3.0,ENE,5.8,-,N/A,,Overcast,60,2012-10-23 07:46:00
2:56 AM,55.9,54.0,93,29.72,2.5,ENE,5.8,-,N/A,,Overcast,60,2012-10-23 07:56:00
3:25 AM,55.4,55.4,100,29.71,1.8,East,4.6,-,N/A,,Overcast,80,2012-10-23 08:25:00
3:32 AM,55.4,55.4,100,29.71,0.8,ENE,4.6,-,N/A,,Overcast,60,2012-10-23 08:32:00
3:48 AM,55.4,55.4,100,29.71,0.2,ENE,3.5,-,N/A,Fog,Fog,60,2012-10-23 08:48:00
3:56 AM,55.0,55.0,100,29.72,0.2,Calm,Calm,-,N/A,Fog,Fog,0,2012-10-23 08:56:00
4:46 AM,55.4,55.4,100,29.72,0.2,Calm,Calm,-,N/A,Fog,Fog,0,2012-10-23 09:46:00
4:56 AM,55.4,55.4,100,29.71,0.2,Calm,Calm,-,N/A,Fog,Fog,0,2012-10-23 09:56:00
5:56 AM,55.0,55.0,100,29.71,0.2,Calm,Calm,-,0.00,Fog,Light Drizzle,0,2012-10-23 10:56:00
6:56 AM,55.0,55.0,100,29.72,0.2,Calm,Calm,-,0.00,Fog,Fog,0,2012-10-23 11:56:00
8:14 AM,55.4,55.4,100,29.69,0.2,SE,3.5,-,N/A,Fog,Fog,130,2012-10-23 13:14:00
8:48 AM,55.4,55.4,100,29.70,0.5,SSW,6.9,-,N/A,Fog,Fog,200,2012-10-23 13:48:00
9:06 AM,55.4,55.4,100,29.70,2.0,SSW,8.1,-,N/A,,Overcast,200,2012-10-23 14:06:00
9:28 AM,53.6,53.6,100,29.71,4.0,SSW,9.2,-,N/A,,Overcast,200,2012-10-23 14:28:00
9:56 AM,55.4,53.6,94,29.72,5.0,SSW,6.9,-,N/A,,Overcast,210,2012-10-23 14:56:00
10:07 AM,55.4,51.8,88,29.72,5.0,SW,8.1,-,N/A,,Overcast,220,2012-10-23 15:07:00
10:56 AM,57.0,52.0,83,29.72,6.0,SSW,8.1,-,N/A,,Overcast,210,2012-10-23 15:56:00
11:46 AM,57.2,51.8,82,29.71,6.0,SSW,6.9,-,N/A,,Overcast,200,2012-10-23 16:46:00
11:56 AM,57.0,52.0,83,29.72,6.0,South,8.1,-,N/A,,Overcast,180,2012-10-23 16:56:00
12:56 PM,57.9,52.0,81,29.70,5.0,SSW,4.6,-,N/A,,Overcast,200,2012-10-23 17:56:00
1:56 PM,57.0,53.1,87,29.70,5.0,SSW,9.2,-,N/A,,Overcast,200,2012-10-23 18:56:00
2:05 PM,57.2,53.6,88,29.69,4.0,SW,8.1,-,N/A,,Overcast,220,2012-10-23 19:05:00
2:56 PM,57.9,54.0,87,29.69,7.0,SSW,9.2,-,0.00,,Overcast,200,2012-10-23 19:56:00
3:56 PM,59.0,53.1,81,29.67,10.0,South,6.9,-,N/A,,Overcast,170,2012-10-23 20:56:00
4:56 PM,59.0,53.1,81,29.70,10.0,SW,6.9,-,N/A,,Overcast,220,2012-10-23 21:56:00
5:20 PM,60.8,53.6,77,29.69,10.0,South,5.8,-,N/A,,Overcast,190,2012-10-23 22:20:00
5:56 PM,60.1,53.1,78,29.70,10.0,SW,4.6,-,N/A,,Overcast,220,2012-10-23 22:56:00
6:56 PM,57.9,52.0,81,29.72,10.0,Calm,Calm,-,N/A,,Overcast,0,2012-10-23 23:56:00
7:56 PM,57.0,52.0,83,29.75,10.0,West,3.5,-,N/A,,Overcast,260,2012-10-24 00:56:00
8:56 PM,55.9,52.0,87,29.77,10.0,Calm,Calm,-,N/A,,Overcast,0,2012-10-24 01:56:00
9:26 PM,53.6,51.8,94,29.77,10.0,NNW,4.6,-,N/A,,Partly Cloudy,340,2012-10-24 02:26:00
9:56 PM,51.1,48.9,92,29.78,10.0,Calm,Calm,-,N/A,,Partly Cloudy,0,2012-10-24 02:56:00
10:56 PM,46.9,46.0,97,29.81,7.0,Calm,Calm,-,N/A,,Clear,0,2012-10-24 03:56:00
11:56 PM,44.1,44.1,100,29.82,7.0,Calm,Calm,-,N/A,,Clear,0,2012-10-24 04:56:00